This is the latest recevied weather packets stored in our database for station/object K7D3. If no packets are shown the sender has not sent any weather packets the latest 10 day(s).
| Time | Temp. | Humidity | Pressure | Rain* | Wind** | Luminosity | Snow |
|---|---|---|---|---|---|---|---|
| 1777918605 | 22.22° C | 21% | - | 0 mm | 10.73 m/s, 293° | - | - |
| 1777918127 | 22.78° C | 20% | - | 0 mm | 8.05 m/s, 245° | - | - |
| 1777917645 | 22.78° C | 21% | - | 0 mm | 5.81 m/s, 269° | - | - |
| 1777917166 | 22.22° C | 20% | - | 0 mm | 6.71 m/s, 226° | - | - |
| 1777916688 | 22.22° C | 19% | - | 0 mm | 9.39 m/s, 298° | - | - |
| 1777916205 | 22.22° C | 20% | - | 0 mm | 7.6 m/s, 295° | - | - |
| 1777915727 | 22.22° C | 20% | - | 0 mm | 8.05 m/s, 281° | - | - |
| 1777915249 | 22.22° C | 19% | - | 0 mm | 9.39 m/s, 301° | - | - |
| 1777914767 | 22.78° C | 19% | - | 0 mm | 6.71 m/s, 257° | - | - |
| 1777914288 | 22.22° C | 20% | - | 0 mm | 4.92 m/s, 11° | - | - |
| 1777913809 | 22.22° C | 22% | - | 0 mm | 9.83 m/s, 257° | - | - |
| 1777913328 | 22.22° C | 23% | - | 0 mm | 6.71 m/s, 255° | - | - |
| 1777912849 | 21.67° C | 23% | - | 0 mm | 7.6 m/s, 271° | - | - |
| 1777912369 | 21.11° C | 22% | - | 0 mm | 6.26 m/s, 302° | - | - |
| 1777911887 | 21.11° C | 24% | - | 0 mm | 6.71 m/s, 302° | - | - |
| 1777911408 | 21.11° C | 24% | - | 0 mm | 7.6 m/s, 271° | - | - |
| 1777910930 | 21.11° C | 28% | - | 0 mm | 4.92 m/s, 284° | - | - |
| 1777910448 | 20.56° C | 27% | - | 0 mm | 6.71 m/s, 262° | - | - |
| 1777909969 | 20.56° C | 29% | - | 0 mm | 9.39 m/s, 283° | - | - |
| 1777909490 | 20.56° C | 31% | - | 0 mm | 6.71 m/s, 283° | - | - |
| 1777909008 | 20° C | 32% | - | 0 mm | 6.26 m/s, 271° | - | - |
| 1777908530 | 20° C | 31% | - | 0 mm | 7.15 m/s, 267° | - | - |
| 1777908051 | 20° C | 35% | - | 0 mm | 4.92 m/s, 290° | - | - |
| 1777907569 | 19.44° C | 36% | - | 0 mm | 5.81 m/s, 238° | - | - |
| 1777907091 | 19.44° C | 39% | - | 0 mm | 5.36 m/s, 264° | - | - |
* Rain latest hour (hover to see other rain measurements)
** Current wind speed in m/s (hover to see current wind gust speed)